Hourly Data Report for August 26, 2015

All times are specified in Local Standard Time (LST). Add 1 hour to adjust for Daylight Saving Time where and when it is observed.

TORONTO INTL A
ONTARIO

43°40'36.000" N
79°37'50.000" W
173.40 m
6158731
71624
YYZ

Download Data

Hourly Data (August 2015)
Hourly Data Report for August 26, 2015
Temp Definition
°C
Dew Point Temp Definition
°C
Rel Hum Definition
%
Wind Dir Definition
10's deg

Wind Spd Definition
km/h
Visibility Definition
km
Stn Press Definition
kPa
Hmdx Definition


Wind Chill Definition


Weather Definition


TIME
00:00 Legend Double Dagger 15.4 11.0 75 23 11 24.1 99.38     LegendNANA
01:00 Legend Double Dagger 15.2 11.4 78 25 9 24.1 99.36     Cloudy
02:00 Legend Double Dagger 15.3 11.5 78 23 12 24.1 99.32     LegendNANA
03:00 Legend Double Dagger 15.3 11.7 79 23 11 24.1 99.34     LegendNANA
04:00 Legend Double Dagger 15.2 11.8 80 25 12 24.1 99.37     Cloudy
05:00 Legend Double Dagger 14.9 11.7 81 26 9 24.1 99.39     LegendNANA
06:00 Legend Double Dagger 15.1 12.1 82 26 13 24.1 99.46     LegendNANA
07:00 Legend Double Dagger 15.4 12.0 80 28 10 24.1 99.49     Mostly Cloudy
08:00 Legend Double Dagger 16.0 11.8 76 27 14 24.1 99.53     LegendNANA
09:00 Legend Double Dagger 16.8 11.6 71 28 18 24.1 99.56     LegendNANA
10:00 Legend Double Dagger 18.0 12.1 68 28 17 24.1 99.58     Mostly Cloudy
11:00 Legend Double Dagger 19.6 12.5 63 28 17 24.1 99.58     LegendNANA
12:00 Legend Double Dagger 19.0 11.4 61 30 20 24.1 99.56     LegendNANA
13:00 Legend Double Dagger 19.7 12.1 61 25 18 24.1 99.55     Mostly Cloudy
14:00 Legend Double Dagger 19.0 11.9 63 27 20 24.1 99.56     LegendNANA
15:00 Legend Double Dagger 19.3 11.9 62 28 21 24.1 99.53     LegendNANA
16:00 Legend Double Dagger 19.5 12.6 64 27 18 24.1 99.54     Mostly Cloudy
17:00 Legend Double Dagger 18.4 11.8 65 29 25 24.1 99.57     LegendNANA
18:00 Legend Double Dagger 17.5 12.0 70 28 20 24.1 99.61     LegendNANA
19:00 Legend Double Dagger 16.9 11.2 69 28 24 24.1 99.63     Mostly Cloudy
20:00 Legend Double Dagger 16.4 10.8 69 28 22 24.1 99.72     LegendNANA
21:00 Legend Double Dagger 15.9 10.9 72 29 22 24.1 99.77     LegendNANA
22:00 Legend Double Dagger 15.4 11.0 75 28 15 24.1 99.77     Mostly Cloudy
23:00 Legend Double Dagger 15.5 10.9 74 29 18 24.1 99.77     LegendNANA

Notes on Data Quality.

Legend

  • E = Estimated
  • M = Missing
  • NA = Not Available
  • ‡ = Partner data that is not subject to review by the National Climate Archives
Date modified: